| time (UTC) | temp F | wind direction | speed MPH | gust MPH | rain 1hr in | rain 24hr in | rain mn in | humidity % | barometer mb |
| 20260906105418 | 74 | 201 | 2.0 | 3.0 | 0.02 | 0.02 | 0.02 | 91 | 1011.8 |
| 20260906104915 | 74 | 205 | 1.0 | 2.0 | 0.01 | 0.01 | 0.02 | 90 | 1011.8 |
| 20260906104644 | 74 | 187 | 1.0 | 3.0 | 0.01 | 0.01 | 0.01 | 90 | 1012.0 |
| 20260906104415 | 74 | 187 | 1.0 | 3.0 | 0.01 | 0.01 | 0.01 | 90 | 1012.0 |
| 20260906103915 | 74 | 190 | 1.0 | 3.0 | 0.01 | 0.01 | 0.01 | 90 | 1012.0 |
| 20260906103413 | 74 | 189 | 1.0 | 4.0 | 0.01 | 0.01 | 0.01 | 89 | 1012.0 |
| 20260906103134 | 74 | 151 | 2.0 | 4.0 | 0.00 | 0.00 | 0.00 | 89 | 1012.0 |
| 20260906103017 | 74 | 151 | 2.0 | 4.0 | 0.00 | 0.00 | 0.00 | 89 | 1012.0 |
| 20260906102413 | 75 | 167 | 2.0 | 4.0 | 0.00 | 0.00 | 0.00 | 88 | 1012.0 |
| 20260906101913 | 75 | 186 | 1.0 | 4.0 | 0.00 | 0.00 | 0.00 | 88 | 1012.1 |
| 20260906101638 | 75 | 255 | 1.0 | 3.0 | 0.00 | 0.00 | 0.00 | 87 | 1012.3 |
| 20260906101413 | 75 | 255 | 1.0 | 3.0 | 0.00 | 0.00 | 0.00 | 87 | 1012.3 |
| 20260906100913 | 75 | 49 | 1.0 | 9.0 | 0.00 | 0.00 | 0.00 | 87 | 1012.5 |
| 20260906100412 | 75 | 26 | 2.0 | 9.0 | 0.00 | 0.00 | 0.00 | 87 | 1012.6 |
| 20260906095913 | 75 | 341 | 3.0 | 10.0 | 0.00 | 0.00 | 0.00 | 87 | 1012.9 |
| 20260906095413 | 75 | 32 | 4.0 | 10.0 | 0.00 | 0.00 | 0.00 | 86 | 1013.0 |
| 20260906095142 | 76 | 40 | 4.0 | 10.0 | 0.00 | 0.00 | 0.00 | 85 | 1013.1 |
| 20260906095017 | 76 | 40 | 4.0 | 10.0 | 0.00 | 0.00 | 0.00 | 85 | 1013.1 |
| 20260906094634 | 76 | 335 | 4.0 | 11.0 | 0.00 | 0.00 | 0.00 | 85 | 1013.1 |
| 20260906094517 | 76 | 335 | 4.0 | 11.0 | 0.00 | 0.00 | 0.00 | 85 | 1013.1 |
| 20260906094140 | 76 | 59 | 4.0 | 11.0 | 0.00 | 0.00 | 0.00 | 84 | 1013.0 |
| 20260906094017 | 76 | 59 | 4.0 | 11.0 | 0.00 | 0.00 | 0.00 | 84 | 1013.0 |
| 20260906093635 | 76 | 64 | 4.0 | 9.0 | 0.00 | 0.00 | 0.00 | 84 | 1012.9 |
| 20260906093517 | 76 | 64 | 4.0 | 9.0 | 0.00 | 0.00 | 0.00 | 84 | 1012.9 |
| 20260906093138 | 76 | 334 | 4.0 | 9.0 | 0.00 | 0.00 | 0.00 | 84 | 1012.8 |
| 20260906093018 | 76 | 334 | 4.0 | 9.0 | 0.00 | 0.00 | 0.00 | 84 | 1012.8 |
| 20260906092412 | 76 | 10 | 4.0 | 8.0 | 0.00 | 0.00 | 0.00 | 85 | 1012.7 |
| 20260906091913 | 76 | 24 | 3.0 | 7.0 | 0.00 | 0.00 | 0.00 | 86 | 1012.6 |
| 20260906091413 | 76 | 19 | 2.0 | 6.0 | 0.00 | 0.00 | 0.00 | 88 | 1012.6 |
| 20260906090913 | 76 | 21 | 2.0 | 4.0 | 0.00 | 0.00 | 0.00 | 89 | 1012.4 |
| 20260906090634 | 76 | 40 | 1.0 | 3.0 | 0.00 | 0.00 | 0.00 | 88 | 1012.1 |
| 20260906090517 | 76 | 40 | 1.0 | 3.0 | 0.00 | 0.00 | 0.00 | 88 | 1012.1 |
| 20260906090015 | 76 | 355 | 1.0 | 3.0 | 0.00 | 0.00 | 0.00 | 88 | 1012.0 |
| 20260906085410 | 76 | 171 | 0.0 | 1.0 | 0.00 | 0.00 | 0.00 | 88 | 1012.0 |
| 20260906084904 | 76 | 171 | 0.0 | 2.0 | 0.00 | 0.00 | 0.00 | 88 | 1012.0 |
| 20260906084358 | 76 | 171 | 1.0 | 3.0 | 0.00 | 0.00 | 0.00 | 88 | 1011.8 |
| 20260906083852 | 76 | 171 | 0.0 | 3.0 | 0.00 | 0.00 | 0.00 | 87 | 1011.8 |
| 20260906083608 | 76 | 139 | 0.0 | 1.0 | 0.00 | 0.00 | 0.00 | 87 | 1011.8 |
| 20260906083450 | 76 | 139 | 0.0 | 1.0 | 0.00 | 0.00 | 0.00 | 87 | 1011.8 |
| 20260906083101 | 76 | 139 | 0.0 | 1.0 | 0.00 | 0.00 | 0.00 | 87 | 1011.9 |
| 20260906082944 | 76 | 139 | 0.0 | 1.0 | 0.00 | 0.00 | 0.00 | 87 | 1011.9 |
| 20260906082334 | 76 | 139 | 0.0 | 2.0 | 0.00 | 0.00 | 0.00 | 87 | 1011.9 |
| 20260906081828 | 77 | 139 | 0.0 | 2.0 | 0.00 | 0.00 | 0.00 | 86 | 1011.7 |
| 20260906081547 | 77 | 139 | 0.0 | 2.0 | 0.00 | 0.00 | 0.00 | 85 | 1011.8 |
| 20260906081427 | 77 | 139 | 0.0 | 2.0 | 0.00 | 0.00 | 0.00 | 85 | 1011.8 |
| 20260906080816 | 77 | 81 | 0.0 | 2.0 | 0.00 | 0.00 | 0.00 | 85 | 1011.7 |
| 20260906080310 | 77 | 81 | 1.0 | 4.0 | 0.00 | 0.00 | 0.00 | 85 | 1011.7 |
| 20260906075808 | 77 | 51 | 1.0 | 4.0 | 0.00 | 0.00 | 0.00 | 84 | 1011.9 |
| 20260906075307 | 77 | 73 | 1.0 | 4.0 | 0.00 | 0.00 | 0.00 | 85 | 1011.9 |
| 20260906074806 | 78 | 52 | 1.0 | 5.0 | 0.00 | 0.00 | 0.00 | 85 | 1012.0 |
| 20260906074246 | 78 | 57 | 0.0 | 5.0 | 0.00 | 0.00 | 0.00 | 87 | 1012.0 |
| 20260906073740 | 78 | 73 | 1.0 | 7.0 | 0.00 | 0.00 | 0.00 | 87 | 1011.9 |
| 20260906073455 | 78 | 5 | 1.0 | 7.0 | 0.00 | 0.00 | 0.00 | 88 | 1012.0 |
| 20260906073234 | 78 | 5 | 1.0 | 7.0 | 0.00 | 0.00 | 0.00 | 88 | 1012.0 |
| 20260906072953 | 79 | 145 | 0.0 | 2.0 | 0.00 | 0.00 | 0.00 | 89 | 1012.0 |
| 20260906072832 | 79 | 145 | 0.0 | 2.0 | 0.00 | 0.00 | 0.00 | 89 | 1012.0 |
| 20260906072448 | 79 | 144 | 0.0 | 2.0 | 0.00 | 0.00 | 0.00 | 89 | 1012.0 |
| 20260906072327 | 79 | 144 | 0.0 | 2.0 | 0.00 | 0.00 | 0.00 | 89 | 1012.0 |
| 20260906071715 | 79 | 196 | 0.0 | 0.0 | 0.00 | 0.00 | 0.00 | 89 | 1011.9 |
| 20260906071210 | 79 | 196 | 0.0 | 0.0 | 0.00 | 0.00 | 0.00 | 89 | 1011.9 |
| 20260906070704 | 79 | 196 | 0.0 | 1.0 | 0.00 | 0.00 | 0.00 | 88 | 1011.9 |
| 20260906070158 | 79 | 196 | 0.0 | 2.0 | 0.00 | 0.00 | 0.00 | 88 | 1011.8 |
| 20260906065651 | 79 | 196 | 0.0 | 2.0 | 0.00 | 0.00 | 0.00 | 88 | 1011.8 |
| 20260906065146 | 79 | 196 | 0.0 | 0.0 | 0.00 | 0.00 | 0.00 | 88 | 1011.8 |
| 20260906064640 | 79 | 196 | 0.0 | 0.0 | 0.00 | 0.00 | 0.00 | 88 | 1011.7 |
| 20260906064134 | 79 | 196 | 0.0 | 2.0 | 0.00 | 0.00 | 0.00 | 88 | 1011.8 |
| 20260906063852 | 79 | 196 | 0.0 | 2.0 | 0.00 | 0.00 | 0.00 | 87 | 1011.8 |
| 20260906063628 | 79 | 196 | 0.0 | 2.0 | 0.00 | 0.00 | 0.00 | 87 | 1011.8 |
| 20260906063339 | 80 | 226 | 0.0 | 2.0 | 0.00 | 0.00 | 0.00 | 87 | 1011.9 |
| 20260906063227 | 80 | 226 | 0.0 | 2.0 | 0.00 | 0.00 | 0.00 | 87 | 1011.9 |
| 20260906062616 | 80 | 302 | 1.0 | 2.0 | 0.00 | 0.00 | 0.00 | 87 | 1011.9 |
| 20260906062110 | 80 | 338 | 1.0 | 2.0 | 0.00 | 0.00 | 0.00 | 87 | 1012.0 |
| 20260906061604 | 80 | 61 | 0.0 | 2.0 | 0.00 | 0.00 | 0.00 | 87 | 1011.9 |
| 20260906061316 | 80 | 61 | 0.0 | 2.0 | 0.00 | 0.00 | 0.00 | 87 | 1011.7 |
| 20260906061203 | 80 | 61 | 0.0 | 2.0 | 0.00 | 0.00 | 0.00 | 87 | 1011.7 |
| 20260906060552 | 80 | 61 | 1.0 | 2.0 | 0.00 | 0.00 | 0.00 | 87 | 1011.8 |
| 20260906060046 | 80 | 73 | 1.0 | 2.0 | 0.00 | 0.00 | 0.00 | 87 | 1011.8 |
| 20260906055759 | 80 | 355 | 1.0 | 4.0 | 0.00 | 0.00 | 0.00 | 87 | 1011.9 |
| 20260906055644 | 80 | 355 | 1.0 | 4.0 | 0.00 | 0.00 | 0.00 | 87 | 1011.9 |
| 20260906055034 | 80 | 44 | 1.0 | 4.0 | 0.00 | 0.00 | 0.00 | 87 | 1011.9 |
| 20260906054744 | 80 | 13 | 1.0 | 4.0 | 0.00 | 0.00 | 0.00 | 87 | 1011.9 |
| 20260906054632 | 80 | 13 | 1.0 | 4.0 | 0.00 | 0.00 | 0.00 | 87 | 1011.9 |
| 20260906054022 | 80 | 355 | 1.0 | 3.0 | 0.00 | 0.00 | 0.00 | 87 | 1012.0 |
| 20260906053741 | 80 | 44 | 2.0 | 5.0 | 0.00 | 0.00 | 0.00 | 87 | 1012.0 |
| 20260906053516 | 80 | 44 | 2.0 | 5.0 | 0.00 | 0.00 | 0.00 | 87 | 1012.0 |
| 20260906053010 | 80 | 311 | 1.0 | 5.0 | 0.00 | 0.00 | 0.00 | 87 | 1012.0 |
| 20260906052504 | 80 | 59 | 1.0 | 5.0 | 0.00 | 0.00 | 0.00 | 87 | 1012.0 |
| 20260906051958 | 80 | 193 | 1.0 | 5.0 | 0.00 | 0.00 | 0.00 | 87 | 1012.0 |
| 20260906051452 | 80 | 126 | 1.0 | 2.0 | 0.00 | 0.00 | 0.00 | 87 | 1012.0 |
| 20260906050946 | 80 | 224 | 1.0 | 4.0 | 0.00 | 0.00 | 0.00 | 87 | 1012.3 |
| 20260906050440 | 80 | 171 | 1.0 | 4.0 | 0.00 | 0.00 | 0.00 | 87 | 1012.3 |
| 20260906045935 | 80 | 155 | 1.0 | 4.0 | 0.00 | 0.00 | 0.00 | 87 | 1012.5 |
| 20260906045429 | 80 | 103 | 0.0 | 1.0 | 0.00 | 0.00 | 0.00 | 87 | 1012.4 |
| 20260906044923 | 80 | 103 | 0.0 | 0.0 | 0.00 | 0.00 | 0.00 | 87 | 1012.3 |
| 20260906044417 | 80 | 103 | 0.0 | 1.0 | 0.00 | 0.00 | 0.00 | 86 | 1012.6 |
| 20260906043911 | 80 | 103 | 0.0 | 1.0 | 0.00 | 0.00 | 0.00 | 86 | 1012.4 |
| 20260906043406 | 80 | 57 | 0.0 | 2.0 | 0.00 | 0.00 | 0.00 | 86 | 1012.5 |
| 20260906043122 | 80 | 57 | 0.0 | 2.0 | 0.00 | 0.00 | 0.00 | 86 | 1012.5 |
| 20260906043003 | 80 | 57 | 0.0 | 2.0 | 0.00 | 0.00 | 0.00 | 86 | 1012.5 |
| 20260906042612 | 80 | 142 | 1.0 | 2.0 | 0.00 | 0.00 | 0.00 | 85 | 1012.4 |
| 20260906042457 | 80 | 142 | 1.0 | 2.0 | 0.00 | 0.00 | 0.00 | 85 | 1012.4 |
| 20260906042114 | 80 | 142 | 1.0 | 2.0 | 0.00 | 0.00 | 0.00 | 85 | 1012.4 |
| 20260906041847 | 80 | 142 | 1.0 | 2.0 | 0.00 | 0.00 | 0.00 | 85 | 1012.4 |
| 20260906041606 | 81 | 155 | 0.0 | 1.0 | 0.00 | 0.00 | 0.00 | 85 | 1012.5 |
| 20260906041445 | 81 | 155 | 0.0 | 1.0 | 0.00 | 0.00 | 0.00 | 85 | 1012.5 |
| 20260906040835 | 81 | 155 | 0.0 | 1.0 | 0.00 | 0.00 | 0.00 | 85 | 1012.5 |
| 20260906040555 | 81 | 155 | 0.0 | 1.0 | 0.00 | 0.00 | 0.00 | 85 | 1012.5 |
| 20260906040434 | 81 | 155 | 0.0 | 1.0 | 0.00 | 0.00 | 0.00 | 85 | 1012.5 |
| 20260906035823 | 81 | 155 | 0.0 | 1.0 | 0.00 | 0.00 | 0.00 | 84 | 1012.4 |
| 20260906035543 | 81 | 155 | 0.0 | 1.0 | 0.00 | 0.00 | 0.00 | 84 | 1012.7 |
| 20260906035317 | 81 | 155 | 0.0 | 1.0 | 0.00 | 0.00 | 0.00 | 84 | 1012.7 |
| 20260906035033 | 81 | 155 | 0.0 | 1.0 | 0.00 | 0.00 | 0.00 | 84 | 1012.7 |
| 20260906034916 | 81 | 155 | 0.0 | 1.0 | 0.00 | 0.00 | 0.00 | 84 | 1012.7 |
| 20260906034305 | 81 | 155 | 0.0 | 2.0 | 0.00 | 0.00 | 0.00 | 84 | 1012.8 |
| 20260906033759 | 81 | 155 | 1.0 | 4.0 | 0.00 | 0.00 | 0.00 | 84 | 1012.8 |
| 20260906033259 | 81 | 336 | 2.0 | 5.0 | 0.00 | 0.00 | 0.00 | 84 | 1012.9 |
| 20260906032759 | 81 | 195 | 1.0 | 5.0 | 0.00 | 0.00 | 0.00 | 84 | 1012.9 |
| 20260906032259 | 81 | 169 | 1.0 | 4.0 | 0.00 | 0.00 | 0.00 | 85 | 1013.0 |
| 20260906032020 | 81 | 261 | 2.0 | 7.0 | 0.00 | 0.00 | 0.00 | 85 | 1013.0 |
| 20260906031759 | 81 | 261 | 2.0 | 7.0 | 0.00 | 0.00 | 0.00 | 85 | 1013.0 |
| 20260906031523 | 80 | 193 | 1.0 | 7.0 | 0.00 | 0.00 | 0.00 | 85 | 1013.1 |
| 20260906031259 | 80 | 193 | 1.0 | 7.0 | 0.00 | 0.00 | 0.00 | 85 | 1013.1 |
| 20260906030800 | 80 | 143 | 0.0 | 3.0 | 0.00 | 0.00 | 0.00 | 85 | 1013.1 |
| 20260906030259 | 80 | 187 | 0.0 | 4.0 | 0.00 | 0.00 | 0.00 | 85 | 1012.8 |
| 20260906030025 | 80 | 86 | 0.0 | 4.0 | 0.00 | 0.00 | 0.00 | 85 | 1012.8 |
| 20260906025759 | 80 | 86 | 0.0 | 4.0 | 0.00 | 0.00 | 0.00 | 85 | 1012.8 |
| 20260906025259 | 80 | 188 | 0.0 | 2.0 | 0.00 | 0.00 | 0.00 | 84 | 1012.2 |
| 20260906025023 | 80 | 188 | 0.0 | 1.0 | 0.00 | 0.00 | 0.00 | 84 | 1012.2 |
| 20260906024757 | 80 | 188 | 0.0 | 1.0 | 0.00 | 0.00 | 0.00 | 84 | 1012.2 |
| 20260906024255 | 80 | 188 | 0.0 | 1.0 | 0.00 | 0.00 | 0.00 | 83 | 1012.0 |
| 20260906024023 | 80 | 188 | 0.0 | 0.0 | 0.00 | 0.00 | 0.00 | 83 | 1012.0 |
| 20260906023755 | 80 | 188 | 0.0 | 0.0 | 0.00 | 0.00 | 0.00 | 83 | 1012.0 |
| 20260906023256 | 80 | 188 | 0.0 | 0.0 | 0.00 | 0.00 | 0.00 | 82 | 1012.1 |
| 20260906022753 | 80 | 188 | 0.0 | 1.0 | 0.00 | 0.00 | 0.00 | 83 | 1012.0 |
| 20260906022253 | 80 | 188 | 1.0 | 2.0 | 0.00 | 0.00 | 0.00 | 83 | 1012.0 |
| 20260906021753 | 80 | 188 | 1.0 | 2.0 | 0.00 | 0.00 | 0.00 | 83 | 1012.1 |
| 20260906021523 | 81 | 188 | 1.0 | 2.0 | 0.00 | 0.00 | 0.00 | 83 | 1012.0 |
| 20260906021355 | 81 | 188 | 1.0 | 2.0 | 0.00 | 0.00 | 0.00 | 83 | 1012.0 |
| 20260906021016 | 81 | 188 | 1.0 | 2.0 | 0.00 | 0.00 | 0.00 | 82 | 1012.0 |
| 20260906020855 | 81 | 188 | 1.0 | 2.0 | 0.00 | 0.00 | 0.00 | 82 | 1012.0 |
| 20260906020251 | 81 | 188 | 1.0 | 2.0 | 0.00 | 0.00 | 0.00 | 82 | 1011.9 |
| 20260906015752 | 81 | 188 | 0.0 | 2.0 | 0.00 | 0.00 | 0.00 | 82 | 1011.8 |
| 20260906015256 | 81 | 188 | 0.0 | 1.0 | 0.00 | 0.00 | 0.00 | 81 | 1011.8 |
| 20260906014751 | 81 | 188 | 0.0 | 0.0 | 0.00 | 0.00 | 0.00 | 81 | 1011.8 |
| 20260906014251 | 81 | 188 | 0.0 | 0.0 | 0.00 | 0.00 | 0.00 | 81 | 1011.8 |
| 20260906013751 | 81 | 188 | 0.0 | 1.0 | 0.00 | 0.00 | 0.00 | 81 | 1011.7 |
| 20260906013252 | 81 | 188 | 0.0 | 1.0 | 0.00 | 0.00 | 0.00 | 81 | 1011.5 |
| 20260906012751 | 81 | 188 | 1.0 | 2.0 | 0.00 | 0.00 | 0.00 | 80 | 1011.4 |
| 20260906012251 | 81 | 188 | 1.0 | 2.0 | 0.00 | 0.00 | 0.00 | 81 | 1011.2 |
| 20260906012010 | 81 | 245 | 0.0 | 2.0 | 0.00 | 0.00 | 0.00 | 80 | 1011.2 |
| 20260906011851 | 81 | 245 | 0.0 | 2.0 | 0.00 | 0.00 | 0.00 | 80 | 1011.2 |
| 20260906011517 | 82 | 245 | 0.0 | 2.0 | 0.00 | 0.00 | 0.00 | 79 | 1011.0 |
| 20260906011247 | 82 | 245 | 0.0 | 2.0 | 0.00 | 0.00 | 0.00 | 79 | 1011.0 |
| 20260906011018 | 82 | 245 | 1.0 | 2.0 | 0.00 | 0.00 | 0.00 | 79 | 1010.9 |
| 20260906010747 | 82 | 245 | 1.0 | 2.0 | 0.00 | 0.00 | 0.00 | 79 | 1010.9 |
| 20260906010247 | 82 | 256 | 1.0 | 2.0 | 0.00 | 0.00 | 0.00 | 78 | 1010.8 |
| 20260906005747 | 82 | 211 | 1.0 | 2.0 | 0.00 | 0.00 | 0.00 | 77 | 1010.7 |
| 20260906005513 | 82 | 198 | 2.0 | 4.0 | 0.00 | 0.00 | 0.00 | 77 | 1010.7 |
| 20260906005351 | 82 | 198 | 2.0 | 4.0 | 0.00 | 0.00 | 0.00 | 77 | 1010.7 |
| 20260906004746 | 82 | 196 | 2.0 | 4.0 | 0.00 | 0.00 | 0.00 | 76 | 1010.6 |
| 20260906004247 | 83 | 180 | 1.0 | 3.0 | 0.00 | 0.00 | 0.00 | 76 | 1010.5 |
| 20260906003747 | 83 | 166 | 1.0 | 3.0 | 0.00 | 0.00 | 0.00 | 76 | 1010.6 |
| 20260906003246 | 83 | 166 | 1.0 | 3.0 | 0.00 | 0.00 | 0.00 | 75 | 1010.6 |
| 20260906002739 | 83 | 166 | 0.0 | 3.0 | 0.00 | 0.00 | 0.00 | 75 | 1010.5 |
| 20260906002233 | 84 | 166 | 0.0 | 0.0 | 0.00 | 0.00 | 0.00 | 74 | 1010.6 |
| 20260906001726 | 84 | 166 | 1.0 | 3.0 | 0.00 | 0.00 | 0.00 | 74 | 1010.5 |
| 20260906001220 | 84 | 166 | 2.0 | 3.0 | 0.00 | 0.00 | 0.00 | 74 | 1010.5 |
| 20260906000714 | 85 | 166 | 2.0 | 3.0 | 0.00 | 0.00 | 0.00 | 74 | 1010.6 |
| 20260906000208 | 85 | 166 | 2.0 | 3.0 | 0.00 | 0.00 | 0.00 | 73 | 1010.6 |
| 20260905235702 | 85 | 197 | 1.0 | 2.0 | 0.00 | 0.00 | 0.00 | 73 | 1010.6 |
| 20260905235156 | 86 | 191 | 1.0 | 2.0 | 0.00 | 0.00 | 0.00 | 72 | 1010.7 |
| 20260905234650 | 87 | 191 | 1.0 | 2.0 | 0.00 | 0.00 | 0.00 | 72 | 1010.7 |
| 20260905234422 | 87 | 191 | 1.0 | 2.0 | 0.00 | 0.00 | 0.00 | 71 | 1010.8 |
| 20260905234144 | 87 | 191 | 1.0 | 2.0 | 0.00 | 0.00 | 0.00 | 71 | 1010.8 |
| 20260905233637 | 88 | 191 | 1.0 | 2.0 | 0.00 | 0.00 | 0.00 | 69 | 1010.8 |
| 20260905233131 | 88 | 191 | 1.0 | 2.0 | 0.00 | 0.00 | 0.00 | 68 | 1010.8 |
| 20260905232624 | 89 | 191 | 1.0 | 2.0 | 0.00 | 0.00 | 0.00 | 68 | 1010.8 |
| 20260905232119 | 89 | 191 | 1.0 | 2.0 | 0.00 | 0.00 | 0.00 | 65 | 1010.8 |
| 20260905231613 | 90 | 191 | 1.0 | 2.0 | 0.00 | 0.00 | 0.00 | 64 | 1010.7 |
| 20260905231106 | 91 | 191 | 1.0 | 2.0 | 0.00 | 0.00 | 0.00 | 63 | 1010.6 |
| 20260905230822 | 92 | 191 | 1.0 | 2.0 | 0.00 | 0.00 | 0.00 | 61 | 1010.6 |
| 20260905230705 | 92 | 191 | 1.0 | 2.0 | 0.00 | 0.00 | 0.00 | 61 | 1010.6 |
| 20260905230054 | 93 | 191 | 1.0 | 2.0 | 0.00 | 0.00 | 0.00 | 59 | 1010.7 |
| 20260905225548 | 94 | 179 | 1.0 | 2.0 | 0.00 | 0.00 | 0.00 | 58 | 1010.7 |
| 20260905225042 | 94 | 178 | 1.0 | 2.0 | 0.00 | 0.00 | 0.00 | 58 | 1010.7 |
| 20260905224756 | 94 | 178 | 1.0 | 2.0 | 0.00 | 0.00 | 0.00 | 57 | 1010.7 |
| 20260905224641 | 94 | 178 | 1.0 | 2.0 | 0.00 | 0.00 | 0.00 | 57 | 1010.7 |
| 20260905224030 | 95 | 138 | 1.0 | 2.0 | 0.00 | 0.00 | 0.00 | 56 | 1010.7 |
| 20260905223524 | 95 | 157 | 1.0 | 3.0 | 0.00 | 0.00 | 0.00 | 56 | 1010.7 |
| 20260905223018 | 95 | 355 | 0.0 | 2.0 | 0.00 | 0.00 | 0.00 | 53 | 1010.5 |
| 20260905222838 | 96 | 355 | 1.0 | 2.0 | 0.00 | 0.00 | 0.00 | 53 | 1010.6 |
| 20260905222731 | 96 | 355 | 1.0 | 2.0 | 0.00 | 0.00 | 0.00 | 53 | 1010.6 |
| 20260905222006 | 96 | 297 | 1.0 | 2.0 | 0.00 | 0.00 | 0.00 | 51 | 1010.6 |
| 20260905221500 | 96 | 191 | 1.0 | 2.0 | 0.00 | 0.00 | 0.00 | 52 | 1010.6 |
| 20260905221226 | 96 | 191 | 1.0 | 2.0 | 0.00 | 0.00 | 0.00 | 55 | 1010.6 |
| 20260905221059 | 96 | 191 | 1.0 | 2.0 | 0.00 | 0.00 | 0.00 | 55 | 1010.6 |
| 20260905220811 | 96 | 191 | 2.0 | 3.0 | 0.00 | 0.00 | 0.00 | 54 | 1010.6 |
| 20260905220708 | 96 | 191 | 2.0 | 3.0 | 0.00 | 0.00 | 0.00 | 54 | 1010.6 |
| 20260905215942 | 97 | 200 | 2.0 | 3.0 | 0.00 | 0.00 | 0.00 | 54 | 1010.6 |
| 20260905215435 | 97 | 175 | 1.0 | 3.0 | 0.00 | 0.00 | 0.00 | 54 | 1010.6 |
| 20260905215156 | 97 | 175 | 0.0 | 2.0 | 0.00 | 0.00 | 0.00 | 52 | 1010.6 |
| 20260905214931 | 97 | 175 | 0.0 | 2.0 | 0.00 | 0.00 | 0.00 | 52 | 1010.6 |
| 20260905214424 | 97 | 53 | 2.0 | 8.0 | 0.00 | 0.00 | 0.00 | 49 | 1010.6 |
| 20260905213918 | 97 | 51 | 3.0 | 8.0 | 0.00 | 0.00 | 0.00 | 51 | 1010.5 |
| 20260905213647 | 97 | 22 | 1.0 | 5.0 | 0.00 | 0.00 | 0.00 | 50 | 1010.7 |
| 20260905213417 | 97 | 22 | 1.0 | 5.0 | 0.00 | 0.00 | 0.00 | 50 | 1010.7 |
| 20260905212915 | 97 | 292 | 1.0 | 3.0 | 0.00 | 0.00 | 0.00 | 49 | 1010.7 |
| 20260905212414 | 97 | 292 | 1.0 | 3.0 | 0.00 | 0.00 | 0.00 | 49 | 1010.7 |
| 20260905212118 | 97 | 334 | 1.0 | 3.0 | 0.00 | 0.00 | 0.00 | 47 | 1010.8 |
| 20260905211958 | 97 | 334 | 1.0 | 3.0 | 0.00 | 0.00 | 0.00 | 47 | 1010.8 |
| 20260905211348 | 97 | 296 | 1.0 | 2.0 | 0.00 | 0.00 | 0.00 | 49 | 1010.9 |
| 20260905210842 | 97 | 284 | 2.0 | 5.0 | 0.00 | 0.00 | 0.00 | 49 | 1010.9 |
| 20260905210336 | 96 | 355 | 3.0 | 7.0 | 0.00 | 0.00 | 0.00 | 49 | 1010.9 |
| 20260905205830 | 97 | 335 | 2.0 | 7.0 | 0.00 | 0.00 | 0.00 | 49 | 1010.9 |
| 20260905205648 | 97 | 346 | 2.0 | 4.0 | 0.00 | 0.00 | 0.00 | 48 | 1011.0 |
| 20260905205554 | 97 | 346 | 2.0 | 4.0 | 0.00 | 0.00 | 0.00 | 48 | 1011.0 |
| 20260905205050 | 96 | 165 | 2.0 | 4.0 | 0.00 | 0.00 | 0.00 | 48 | 1011.0 |
| 20260905204818 | 96 | 165 | 2.0 | 4.0 | 0.00 | 0.00 | 0.00 | 48 | 1011.0 |
| 20260905204312 | 96 | 75 | 2.0 | 7.0 | 0.00 | 0.00 | 0.00 | 49 | 1011.1 |
| 20260905203805 | 96 | 340 | 3.0 | 8.0 | 0.00 | 0.00 | 0.00 | 50 | 1011.1 |
| 20260905203300 | 96 | 324 | 2.0 | 8.0 | 0.00 | 0.00 | 0.00 | 50 | 1011.2 |
| 20260905202755 | 96 | 346 | 1.0 | 4.0 | 0.00 | 0.00 | 0.00 | 52 | 1011.1 |
| 20260905202352 | 96 | 143 | 1.0 | 4.0 | 0.00 | 0.00 | 0.00 | 51 | 1011.2 |
| 20260905202005 | 95 | 290 | 1.0 | 2.0 | 0.00 | 0.00 | 0.00 | 54 | 1011.2 |
| 20260905201742 | 95 | 290 | 1.0 | 2.0 | 0.00 | 0.00 | 0.00 | 54 | 1011.2 |
| 20260905201243 | 95 | 175 | 1.0 | 3.0 | 0.00 | 0.00 | 0.00 | 53 | 1011.3 |
| 20260905201011 | 95 | 63 | 2.0 | 4.0 | 0.00 | 0.00 | 0.00 | 51 | 1011.3 |
| 20260905200742 | 95 | 63 | 2.0 | 4.0 | 0.00 | 0.00 | 0.00 | 51 | 1011.3 |
| 20260905200242 | 95 | 18 | 2.0 | 5.0 | 0.00 | 0.00 | 0.00 | 50 | 1011.3 |
| 20260905195740 | 95 | 318 | 2.0 | 5.0 | 0.00 | 0.00 | 0.00 | 50 | 1011.3 |
| 20260905195240 | 95 | 190 | 2.0 | 4.0 | 0.00 | 0.00 | 0.00 | 57 | 1011.4 |
| 20260905194741 | 95 | 190 | 1.0 | 4.0 | 0.00 | 0.00 | 0.00 | 58 | 1011.5 |
| 20260905194507 | 95 | 161 | 1.0 | 4.0 | 0.00 | 0.00 | 0.00 | 48 | 1011.6 |
| 20260905193740 | 96 | 128 | 1.0 | 4.0 | 0.00 | 0.00 | 0.00 | 49 | 1011.6 |
| 20260905193239 | 96 | 105 | 1.0 | 4.0 | 0.00 | 0.00 | 0.00 | 50 | 1011.7 |
| 20260905192738 | 96 | 126 | 1.0 | 4.0 | 0.00 | 0.00 | 0.00 | 49 | 1011.8 |
| 20260905192236 | 96 | 80 | 1.0 | 4.0 | 0.00 | 0.00 | 0.00 | 49 | 1011.8 |
| 20260905191737 | 96 | 271 | 1.0 | 4.0 | 0.00 | 0.00 | 0.00 | 51 | 1011.8 |
| 20260905191338 | 96 | 5 | 2.0 | 4.0 | 0.00 | 0.00 | 0.00 | 49 | 1011.8 |
| 20260905190734 | 96 | 24 | 2.0 | 5.0 | 0.00 | 0.00 | 0.00 | 49 | 1011.9 |
| 20260905190235 | 97 | 343 | 1.0 | 5.0 | 0.00 | 0.00 | 0.00 | 49 | 1012.0 |
| 20260905185734 | 97 | 315 | 2.0 | 4.0 | 0.00 | 0.00 | 0.00 | 49 | 1012.1 |
| 20260905185234 | 96 | 28 | 2.0 | 6.0 | 0.00 | 0.00 | 0.00 | 48 | 1012.2 |
| 20260905184734 | 96 | 142 | 2.0 | 6.0 | 0.00 | 0.00 | 0.00 | 49 | 1012.2 |
| 20260905184234 | 95 | 225 | 1.0 | 4.0 | 0.00 | 0.00 | 0.00 | 49 | 1012.3 |
| 20260905183957 | 94 | 179 | 2.0 | 6.0 | 0.00 | 0.00 | 0.00 | 51 | 1012.5 |
| 20260905183734 | 94 | 179 | 2.0 | 6.0 | 0.00 | 0.00 | 0.00 | 51 | 1012.5 |
| 20260905183233 | 94 | 160 | 2.0 | 6.0 | 0.00 | 0.00 | 0.00 | 53 | 1012.5 |
| 20260905182952 | 94 | 27 | 2.0 | 6.0 | 0.00 | 0.00 | 0.00 | 53 | 1012.6 |
| 20260905182839 | 94 | 27 | 2.0 | 6.0 | 0.00 | 0.00 | 0.00 | 53 | 1012.6 |
| 20260905182234 | 94 | 340 | 2.0 | 6.0 | 0.00 | 0.00 | 0.00 | 55 | 1012.7 |
| 20260905181733 | 93 | 203 | 2.0 | 4.0 | 0.00 | 0.00 | 0.00 | 56 | 1012.8 |
| 20260905181234 | 93 | 211 | 2.0 | 4.0 | 0.00 | 0.00 | 0.00 | 62 | 1012.9 |
| 20260905180734 | 93 | 210 | 1.0 | 4.0 | 0.00 | 0.00 | 0.00 | 60 | 1013.0 |
| 20260905180234 | 93 | 114 | 1.0 | 4.0 | 0.00 | 0.00 | 0.00 | 58 | 1013.1 |
| 20260905175959 | 93 | 225 | 1.0 | 5.0 | 0.00 | 0.00 | 0.00 | 55 | 1013.2 |
| 20260905175839 | 93 | 225 | 1.0 | 5.0 | 0.00 | 0.00 | 0.00 | 55 | 1013.2 |
| 20260905175232 | 94 | 273 | 2.0 | 9.0 | 0.00 | 0.00 | 0.00 | 54 | 1013.2 |
| 20260905175003 | 94 | 36 | 3.0 | 9.0 | 0.00 | 0.00 | 0.00 | 54 | 1013.2 |
| 20260905174732 | 94 | 36 | 3.0 | 9.0 | 0.00 | 0.00 | 0.00 | 54 | 1013.2 |
| 20260905174602 | 94 | 201 | 2.0 | 6.0 | 0.00 | 0.00 | 0.00 | 55 | 1013.3 |
| 20260905174501 | 94 | 201 | 2.0 | 6.0 | 0.00 | 0.00 | 0.00 | 55 | 1013.3 |
| 20260905173732 | 93 | 111 | 2.0 | 4.0 | 0.00 | 0.00 | 0.00 | 56 | 1013.4 |
| 20260905173230 | 93 | 90 | 2.0 | 7.0 | 0.00 | 0.00 | 0.00 | 56 | 1013.5 |
| 20260905172730 | 93 | 300 | 3.0 | 7.0 | 0.00 | 0.00 | 0.00 | 57 | 1013.4 |
| 20260905172450 | 93 | 15 | 2.0 | 7.0 | 0.00 | 0.00 | 0.00 | 57 | 1013.5 |
| 20260905172334 | 93 | 15 | 2.0 | 7.0 | 0.00 | 0.00 | 0.00 | 57 | 1013.5 |
| 20260905171723 | 94 | 312 | 1.0 | 5.0 | 0.00 | 0.00 | 0.00 | 56 | 1013.5 |
| 20260905171438 | 93 | 115 | 2.0 | 5.0 | 0.00 | 0.00 | 0.00 | 57 | 1013.7 |
| 20260905171321 | 93 | 115 | 2.0 | 5.0 | 0.00 | 0.00 | 0.00 | 57 | 1013.7 |
| 20260905170711 | 93 | 158 | 2.0 | 4.0 | 0.00 | 0.00 | 0.00 | 57 | 1013.8 |
| 20260905170205 | 93 | 317 | 2.0 | 4.0 | 0.00 | 0.00 | 0.00 | 61 | 1013.8 |
| 20260905170021 | 92 | 181 | 1.0 | 7.0 | 0.00 | 0.00 | 0.00 | 60 | 1013.9 |
| 20260905165927 | 92 | 181 | 1.0 | 7.0 | 0.00 | 0.00 | 0.00 | 60 | 1013.9 |
| 20260905165421 | 92 | 15 | 2.0 | 7.0 | 0.00 | 0.00 | 0.00 | 58 | 1013.9 |
| 20260905165153 | 92 | 15 | 2.0 | 7.0 | 0.00 | 0.00 | 0.00 | 58 | 1013.9 |
| 20260905164647 | 92 | 193 | 3.0 | 9.0 | 0.00 | 0.00 | 0.00 | 59 | 1014.0 |
| 20260905164141 | 92 | 330 | 3.0 | 9.0 | 0.00 | 0.00 | 0.00 | 60 | 1014.0 |
| 20260905163635 | 92 | 297 | 2.0 | 5.0 | 0.00 | 0.00 | 0.00 | 61 | 1014.0 |
| 20260905163349 | 92 | 68 | 2.0 | 5.0 | 0.00 | 0.00 | 0.00 | 60 | 1014.1 |
| 20260905163233 | 92 | 68 | 2.0 | 5.0 | 0.00 | 0.00 | 0.00 | 60 | 1014.1 |
| 20260905162623 | 92 | 84 | 2.0 | 8.0 | 0.00 | 0.00 | 0.00 | 61 | 1014.1 |
| 20260905162118 | 91 | 350 | 2.0 | 8.0 | 0.00 | 0.00 | 0.00 | 60 | 1014.1 |
| 20260905161611 | 91 | 26 | 3.0 | 7.0 | 0.00 | 0.00 | 0.00 | 61 | 1014.1 |
| 20260905161105 | 91 | 26 | 3.0 | 7.0 | 0.00 | 0.00 | 0.00 | 60 | 1014.1 |
| 20260905160559 | 91 | 329 | 2.0 | 7.0 | 0.00 | 0.00 | 0.00 | 61 | 1014.1 |
| 20260905160315 | 91 | 28 | 2.0 | 7.0 | 0.00 | 0.00 | 0.00 | 60 | 1014.1 |
| 20260905160053 | 91 | 28 | 2.0 | 7.0 | 0.00 | 0.00 | 0.00 | 60 | 1014.1 |
| 20260905155547 | 90 | 0 | 2.0 | 4.0 | 0.00 | 0.00 | 0.00 | 64 | 1014.2 |
| 20260905155041 | 90 | 5 | 2.0 | 6.0 | 0.00 | 0.00 | 0.00 | 63 | 1014.2 |
| 20260905154535 | 89 | 40 | 2.0 | 6.0 | 0.00 | 0.00 | 0.00 | 64 | 1014.1 |
| 20260905154029 | 89 | 355 | 2.0 | 5.0 | 0.00 | 0.00 | 0.00 | 63 | 1014.2 |
| 20260905153524 | 89 | 45 | 2.0 | 4.0 | 0.00 | 0.00 | 0.00 | 65 | 1014.2 |
| 20260905153017 | 88 | 46 | 3.0 | 6.0 | 0.00 | 0.00 | 0.00 | 65 | 1014.2 |
| 20260905152615 | 88 | 0 | 3.0 | 7.0 | 0.00 | 0.00 | 0.00 | 65 | 1014.2 |
| 20260905152006 | 88 | 16 | 3.0 | 7.0 | 0.00 | 0.00 | 0.00 | 65 | 1014.3 |
| 20260905151459 | 87 | 23 | 2.0 | 7.0 | 0.00 | 0.00 | 0.00 | 66 | 1014.3 |
| 20260905150953 | 87 | 49 | 2.0 | 6.0 | 0.00 | 0.00 | 0.00 | 67 | 1014.2 |
| 20260905150447 | 86 | 291 | 2.0 | 8.0 | 0.00 | 0.00 | 0.00 | 69 | 1014.3 |
| 20260905145942 | 86 | 105 | 2.0 | 8.0 | 0.00 | 0.00 | 0.00 | 70 | 1014.3 |
| 20260905145657 | 85 | 81 | 2.0 | 5.0 | 0.00 | 0.00 | 0.00 | 70 | 1014.3 |
| 20260905145435 | 85 | 81 | 2.0 | 5.0 | 0.00 | 0.00 | 0.00 | 70 | 1014.3 |
| 20260905144929 | 85 | 42 | 2.0 | 4.0 | 0.00 | 0.00 | 0.00 | 71 | 1014.2 |
| 20260905144423 | 84 | 160 | 2.0 | 5.0 | 0.00 | 0.00 | 0.00 | 74 | 1014.3 |
| 20260905143917 | 83 | 21 | 2.0 | 5.0 | 0.00 | 0.00 | 0.00 | 75 | 1014.4 |
| 20260905143411 | 83 | 25 | 1.0 | 5.0 | 0.00 | 0.00 | 0.00 | 77 | 1014.4 |
| 20260905142905 | 82 | 50 | 1.0 | 3.0 | 0.00 | 0.00 | 0.00 | 80 | 1014.4 |
| 20260905142503 | 82 | 56 | 1.0 | 5.0 | 0.00 | 0.00 | 0.00 | 81 | 1014.4 |
| 20260905141852 | 81 | 355 | 1.0 | 5.0 | 0.00 | 0.00 | 0.00 | 83 | 1014.3 |
| 20260905141451 | 80 | 28 | 1.0 | 3.0 | 0.00 | 0.00 | 0.00 | 85 | 1014.3 |
| 20260905140841 | 80 | 146 | 1.0 | 2.0 | 0.00 | 0.00 | 0.00 | 87 | 1014.4 |
| 20260905140335 | 79 | 143 | 0.0 | 2.0 | 0.00 | 0.00 | 0.00 | 88 | 1014.5 |
| 20260905140157 | 78 | 143 | 0.0 | 2.0 | 0.00 | 0.00 | 0.00 | 89 | 1014.5 |
| 20260905140055 | 78 | 143 | 0.0 | 2.0 | 0.00 | 0.00 | 0.00 | 89 | 1014.5 |
| 20260905135323 | 78 | 143 | 1.0 | 2.0 | 0.00 | 0.00 | 0.00 | 91 | 1014.5 |
| 20260905134821 | 78 | 217 | 1.0 | 2.0 | 0.00 | 0.00 | 0.00 | 92 | 1014.5 |
| 20260905134321 | 77 | 178 | 1.0 | 2.0 | 0.00 | 0.00 | 0.00 | 92 | 1014.5 |
| 20260905133820 | 77 | 178 | 1.0 | 2.0 | 0.00 | 0.00 | 0.00 | 93 | 1014.5 |
| 20260905133317 | 77 | 205 | 0.0 | 1.0 | 0.00 | 0.00 | 0.00 | 94 | 1014.5 |
| 20260905132817 | 76 | 205 | 0.0 | 1.0 | 0.00 | 0.00 | 0.00 | 94 | 1014.6 |
| 20260905132317 | 76 | 205 | 0.0 | 2.0 | 0.00 | 0.00 | 0.00 | 94 | 1014.6 |
| 20260905131921 | 76 | 205 | 1.0 | 2.0 | 0.00 | 0.00 | 0.00 | 94 | 1014.6 |
| 20260905131317 | 76 | 225 | 0.0 | 1.0 | 0.00 | 0.00 | 0.00 | 94 | 1014.7 |
| 20260905130816 | 76 | 225 | 0.0 | 2.0 | 0.00 | 0.00 | 0.00 | 94 | 1014.7 |
| 20260905130541 | 75 | 225 | 1.0 | 2.0 | 0.00 | 0.00 | 0.00 | 94 | 1014.6 |
| 20260905130313 | 75 | 225 | 1.0 | 2.0 | 0.00 | 0.00 | 0.00 | 94 | 1014.6 |
| 20260905125813 | 75 | 182 | 0.0 | 1.0 | 0.00 | 0.00 | 0.00 | 95 | 1014.6 |
| 20260905125313 | 75 | 182 | 0.0 | 1.0 | 0.00 | 0.00 | 0.00 | 94 | 1014.6 |
| 20260905125034 | 75 | 182 | 0.0 | 1.0 | 0.00 | 0.00 | 0.00 | 94 | 1014.6 |
| 20260905124915 | 75 | 182 | 0.0 | 1.0 | 0.00 | 0.00 | 0.00 | 94 | 1014.6 |
| 20260905124309 | 74 | 182 | 0.0 | 1.0 | 0.00 | 0.00 | 0.00 | 94 | 1014.6 |
| 20260905123809 | 74 | 182 | 0.0 | 0.0 | 0.00 | 0.00 | 0.00 | 94 | 1014.6 |
| 20260905123309 | 74 | 182 | 0.0 | 1.0 | 0.00 | 0.00 | 0.00 | 94 | 1014.6 |
| 20260905122809 | 74 | 182 | 1.0 | 2.0 | 0.00 | 0.00 | 0.00 | 94 | 1014.6 |
| 20260905122307 | 74 | 182 | 1.0 | 2.0 | 0.00 | 0.00 | 0.00 | 94 | 1014.5 |
| 20260905121807 | 74 | 209 | 0.0 | 2.0 | 0.00 | 0.00 | 0.00 | 94 | 1014.5 |
| 20260905121307 | 74 | 209 | 0.0 | 0.0 | 0.00 | 0.00 | 0.00 | 94 | 1014.5 |
| 20260905120805 | 74 | 209 | 0.0 | 0.0 | 0.00 | 0.00 | 0.00 | 94 | 1014.4 |
| 20260905120528 | 74 | 209 | 0.0 | 0.0 | 0.00 | 0.00 | 0.00 | 94 | 1014.3 |
| 20260905120305 | 74 | 209 | 0.0 | 0.0 | 0.00 | 0.00 | 0.00 | 94 | 1014.3 |
| 20260905120029 | 74 | 209 | 0.0 | 1.0 | 0.00 | 0.00 | 0.00 | 94 | 1014.3 |
| 20260905115909 | 74 | 209 | 0.0 | 1.0 | 0.00 | 0.00 | 0.00 | 94 | 1014.3 |
| 20260905115306 | 74 | 209 | 0.0 | 1.0 | 0.00 | 0.00 | 0.00 | 94 | 1014.3 |
| 20260905114805 | 74 | 209 | 0.0 | 1.0 | 0.00 | 0.00 | 0.00 | 94 | 1014.3 |
| 20260905114305 | 74 | 209 | 1.0 | 2.0 | 0.00 | 0.00 | 0.00 | 94 | 1014.3 |
| 20260905114044 | 74 | 209 | 1.0 | 2.0 | 0.00 | 0.00 | 0.00 | 94 | 1014.2 |
| 20260905113910 | 74 | 209 | 1.0 | 2.0 | 0.00 | 0.00 | 0.00 | 94 | 1014.2 |
| 20260905113306 | 74 | 209 | 0.0 | 2.0 | 0.00 | 0.00 | 0.00 | 94 | 1014.2 |
| 20260905112801 | 74 | 209 | 0.0 | 1.0 | 0.00 | 0.00 | 0.00 | 94 | 1014.2 |
| 20260905112305 | 74 | 209 | 0.0 | 1.0 | 0.00 | 0.00 | 0.00 | 94 | 1014.2 |
| 20260905112034 | 74 | 209 | 0.0 | 1.0 | 0.00 | 0.00 | 0.00 | 94 | 1014.2 |
| 20260905111905 | 74 | 209 | 0.0 | 1.0 | 0.00 | 0.00 | 0.00 | 94 | 1014.2 |
| 20260905111534 | 74 | 209 | 1.0 | 2.0 | 0.00 | 0.00 | 0.00 | 94 | 1014.1 |
| 20260905111301 | 74 | 209 | 1.0 | 2.0 | 0.00 | 0.00 | 0.00 | 94 | 1014.1 |
| 20260905110801 | 74 | 209 | 1.0 | 2.0 | 0.00 | 0.00 | 0.00 | 94 | 1014.0 |
| 20260905110532 | 74 | 209 | 1.0 | 2.0 | 0.00 | 0.00 | 0.00 | 94 | 1013.9 |
| 20260905110405 | 74 | 209 | 1.0 | 2.0 | 0.00 | 0.00 | 0.00 | 94 | 1013.9 |
| 20260905105800 | 74 | 209 | 1.0 | 2.0 | 0.00 | 0.00 | 0.00 | 94 | 1014.0 |
| 20260905105525 | 73 | 209 | 1.0 | 2.0 | 0.00 | 0.00 | 0.00 | 93 | 1014.0 |